(253558) = 2003 SJ259

Discovered at Kitt Peak on 2003-09-28 by Spacewatch.

Orbit

Orbit type: Main Belt

Note: WebGL enabled browser required.

epoch2023-02-25.0
epoch JD2460000.5
perihelion date2022-08-18.59589
perihelion JD2459810.09589
argument of perihelion (°)160.41151
ascending node (°)24.49317
inclination (°)7.54927
eccentricity0.0571340
perihelion distance (AU)2.1625190
Tisserand w.r.t. Jupiter3.6
ΔV w.r.t. Earth (km/sec)9.4
semimajor axis (AU)2.2935592
mean anomaly (°)54.02754
mean daily motion (°/day)0.28375200
aphelion distance (AU)2.425
period (years)3.47
P-vector [x]-0.99513354
P-vector [y]-0.09839004
P-vector [z]0.00535056
Q-vector [x]0.08211276
Q-vector [y]-0.85806956
Q-vector [z]-0.50692615
absolute magnitude17.15
phase slope0.15
uncertainty0
referenceMPO 745323
observations used408
oppositions14
arc length (days)9717
first opposition used1996
last opposition used2023
residual rms (arc-secs)0.73
perturbers coarse indicatorM-v
perturbers precise indicator003Ek
first observation date used1996-11-07.0
last observation date used2023-06-16.0
computer nameMPCLINUX
JD of orbit computation2456966.896044
perihelion JD uncertainty (days)1.5200E-04
argument of perihelion uncertainty (°)5.7892E-05
ascending node uncertainty (°)3.9387E-05
inclination uncertainty (°)9.3838E-06
eccentricity uncertainty 1.0523E-07
perihelion distance uncertainty (AU)2.3378E-07
Minimum Orbit Intersection Distances (in AU)
for orbit epoch: 2460000.5, reference: E2023-M35
Mercury1.73778
Venus1.44215
Earth1.16451
Mars0.51257
Jupiter2.52766
Saturn6.76449
Uranus16.2782
Neptune27.4339

Observations

414 total observations over interval: 1996 11 07.21191 – 2023 06 16.499837
These data are available for download (format description).

Date (UT) J2000 RA J2000 Dec Magn Location Ref
1996 11 07.21191 01 16 31.32 +09 30 46.4 20.7 V 691 – Steward Observatory, Kitt Peak-Spacewatch MPS 133110
1996 11 07.23330 01 16 30.18 +09 30 44.3 20.9 V 691 – Steward Observatory, Kitt Peak-Spacewatch MPS 133110
1996 11 07.25469 01 16 29.02 +09 30 41.8 20.3 V 691 – Steward Observatory, Kitt Peak-Spacewatch MPS 133110
1998 03 25.15507 11 29 15.06 +10 34 22.8 19.7   704 – Lincoln Laboratory ETS, New Mexico MPS 133110
1998 03 25.17564 11 29 13.76 +10 34 23.6 19.6   704 – Lincoln Laboratory ETS, New Mexico MPS 133110
1998 03 25.19594 11 29 12.53 +10 34 23.1 19.7   704 – Lincoln Laboratory ETS, New Mexico MPS 133110
1998 03 25.21627 11 29 11.23 +10 34 24.6 19.6   704 – Lincoln Laboratory ETS, New Mexico MPS 133110
2003 09 28.41355 02 25 23.22 +14 33 51.8 20.9 V 691 – Steward Observatory, Kitt Peak-Spacewatch MPS 87123
2003 09 28.44204 02 25 22.02 +14 33 52.1 21.0 V 691 – Steward Observatory, Kitt Peak-Spacewatch MPS 87123
2003 09 28.46942 02 25 20.90 +14 33 52.3 21.1 V 691 – Steward Observatory, Kitt Peak-Spacewatch MPS 87123
2003 09 29.31516 02 24 47.18 +14 33 59.3 20.7 V 291 – LPL/Spacewatch II MPS 87123
2003 09 29.31899 02 24 47.03 +14 33 59.6 20.6 V 291 – LPL/Spacewatch II MPS 87123
2003 09 29.32287 02 24 46.84 +14 33 59.3 20.5 V 291 – LPL/Spacewatch II MPS 87123
2003 10 24.26339 02 01 01.55 +14 03 52.5 19.8   704 – Lincoln Laboratory ETS, New Mexico MPS 89530
2003 10 24.27541 02 01 00.67 +14 03 52.0 20.2   704 – Lincoln Laboratory ETS, New Mexico MPS 89530
2003 10 24.28740 02 00 59.93 +14 03 50.1 20.3   704 – Lincoln Laboratory ETS, New Mexico MPS 89530
2003 10 24.29959 02 00 58.98 +14 03 48.1 19.6   704 – Lincoln Laboratory ETS, New Mexico MPS 89530
2003 10 24.31127 02 00 58.28 +14 03 46.8 19.6   704 – Lincoln Laboratory ETS, New Mexico MPS 89530
2003 10 25.20276 01 59 58.87 +14 01 44.7 20.5 V 691 – Steward Observatory, Kitt Peak-Spacewatch MPS 89530
2003 10 25.24316 01 59 56.09 +14 01 39.4 20.3 V 691 – Steward Observatory, Kitt Peak-Spacewatch MPS 89530
2003 10 25.27082 01 59 54.16 +14 01 35.7 20.7 V 691 – Steward Observatory, Kitt Peak-Spacewatch MPS 89530
2003 11 22.11020 01 33 20.21 +13 01 26.1 20.9 V 691 – Steward Observatory, Kitt Peak-Spacewatch MPS 91846
2003 11 22.13934 01 33 19.06 +13 01 23.8 21.7 V 691 – Steward Observatory, Kitt Peak-Spacewatch MPS 91846
2003 11 22.16955 01 33 17.79 +13 01 21.5 20.9 V 691 – Steward Observatory, Kitt Peak-Spacewatch MPS 91846
2005 03 18.34887 12 13 48.75 +04 58 02.1 18.6 R 703 – Catalina Sky Survey MPS 133110
2005 03 18.35588 12 13 48.26 +04 58 03.8 19.4 R 703 – Catalina Sky Survey MPS 133110
2005 03 18.36292 12 13 47.75 +04 58 04.2 18.3 R 703 – Catalina Sky Survey MPS 133110
2005 03 18.36999 12 13 47.35 +04 58 05.8 18.5 R 703 – Catalina Sky Survey MPS 133110
2005 04 04.30435 11 56 06.61 +05 29 09.2 18.5 R 703 – Catalina Sky Survey MPS 135344
2005 04 04.31244 11 56 06.21 +05 29 11.6 18.1 R 703 – Catalina Sky Survey MPS 135344
2005 04 04.32061 11 56 05.71 +05 29 09.8 19.0 R 703 – Catalina Sky Survey MPS 135344
2005 04 04.32865 11 56 05.20 +05 29 09.5 19.0 R 703 – Catalina Sky Survey MPS 135344
2008 01 11.26970 06 57 44.49 +35 53 40.9 19.9   704 – Lincoln Laboratory ETS, New Mexico MPS 234199
2008 01 11.28267 06 57 43.55 +35 53 42.0 20.6   704 – Lincoln Laboratory ETS, New Mexico MPS 234199
2008 01 11.29561 06 57 42.55 +35 53 42.3 20.0   704 – Lincoln Laboratory ETS, New Mexico MPS 234199
2008 01 11.30855 06 57 41.45 +35 53 42.9 19.8   704 – Lincoln Laboratory ETS, New Mexico MPS 234199
2008 01 11.32172 06 57 40.34 +35 53 43.6 20.2   704 – Lincoln Laboratory ETS, New Mexico MPS 234199
2008 04 27.14758 07 37 58.69 +28 25 51.1 21.7 V G96 – Mt. Lemmon Survey MPS 248104
2008 04 27.15292 07 37 59.16 +28 25 48.7 21.5 V G96 – Mt. Lemmon Survey MPS 248104
2008 04 27.15830 07 37 59.77 +28 25 46.7 21.9 V G96 – Mt. Lemmon Survey MPS 248104
2008 04 27.16368 07 38 00.24 +28 25 44.6 21.8 V G96 – Mt. Lemmon Survey MPS 248104
2010 10 14.507728 02 41 08.352 +17 52 19.15 20.14 i F51 – Pan-STARRS 1, Haleakala MPS 366839
2010 10 14.519491 02 41 07.672 +17 52 18.96 20.13 i F51 – Pan-STARRS 1, Haleakala MPS 366839
2010 10 30.16357 02 24 33.32 +17 34 13.2 20.2 V 691 – Steward Observatory, Kitt Peak-Spacewatch MPS 353723
2010 10 30.18129 02 24 32.12 +17 34 11.5 19.9 V 691 – Steward Observatory, Kitt Peak-Spacewatch MPS 353723
2010 10 30.19900 02 24 30.91 +17 34 09.8 19.9 V 691 – Steward Observatory, Kitt Peak-Spacewatch MPS 353723
2010 11 03.19763 02 19 57.97 +17 26 05.8 19.4 V 703 – Catalina Sky Survey MPS 353723
2010 11 03.20219 02 19 57.64 +17 26 06.0 19.4 V 703 – Catalina Sky Survey MPS 353723
2010 11 03.20675 02 19 57.25 +17 26 05.8 19.6 V 703 – Catalina Sky Survey MPS 353723
2010 11 03.21133 02 19 57.03 +17 26 05.2 19.6 V 703 – Catalina Sky Survey MPS 353723
2010 11 07.26250 02 15 23.64 +17 17 04.8 20.0   704 – Lincoln Laboratory ETS, New Mexico MPS 355270
2010 11 07.27509 02 15 22.85 +17 17 02.6 19.8   704 – Lincoln Laboratory ETS, New Mexico MPS 355270
2010 11 07.28768 02 15 21.90 +17 17 01.7 20.4   704 – Lincoln Laboratory ETS, New Mexico MPS 355270
2010 11 07.30028 02 15 20.97 +17 17 00.1 20.5   704 – Lincoln Laboratory ETS, New Mexico MPS 355270
2010 11 07.31288 02 15 20.19 +17 16 59.6 20.2   704 – Lincoln Laboratory ETS, New Mexico MPS 355270
2012 02 22.40759 13 05 58.14 -00 56 30.0 20.2 V 691 – Steward Observatory, Kitt Peak-Spacewatch MPS 414033
2012 02 22.42552 13 05 57.85 -00 56 30.0 20.2 V 691 – Steward Observatory, Kitt Peak-Spacewatch MPS 414033
2012 02 22.44346 13 05 57.51 -00 56 30.5 20.4 V 691 – Steward Observatory, Kitt Peak-Spacewatch MPS 414033
2012 03 04.41273 13 01 13.07 -00 50 10.0 20.0 V 691 – Steward Observatory, Kitt Peak-Spacewatch MPS 415963
2012 03 04.43043 13 01 12.35 -00 50 08.7 20.2 V 691 – Steward Observatory, Kitt Peak-Spacewatch MPS 415963
2012 03 04.44814 13 01 11.65 -00 50 07.4 20.0 V 691 – Steward Observatory, Kitt Peak-Spacewatch MPS 415963
2012 03 21.32072 12 47 08.95 -00 18 51.0 19.5 V 703 – Catalina Sky Survey MPS 418299
2012 03 21.33278 12 47 08.16 -00 18 49.1 19.3 V 703 – Catalina Sky Survey MPS 418299
2012 03 21.34488 12 47 07.51 -00 18 47.8 19.4 V 703 – Catalina Sky Survey MPS 418299
2012 03 21.35688 12 47 06.61 -00 18 46.1 19.2 V 703 – Catalina Sky Survey MPS 418299
2012 03 21.41123 12 47 03.26 -00 18 38.8 19.4 V G96 – Mt. Lemmon Survey MPS 418299
2012 03 21.41641 12 47 02.90 -00 18 38.3 19.6 V G96 – Mt. Lemmon Survey MPS 418299
2012 03 21.42162 12 47 02.58 -00 18 37.8 19.4 V G96 – Mt. Lemmon Survey MPS 418299
2012 03 21.42685 12 47 02.22 -00 18 36.7 19.4 V G96 – Mt. Lemmon Survey MPS 418299
2012 03 27.25053 12 40 58.00 -00 05 40.6 19.4 V 703 – Catalina Sky Survey MPS 420089
2012 03 27.25637 12 40 57.64 -00 05 40.8 19.7 V 703 – Catalina Sky Survey MPS 420089
2012 03 27.26230 12 40 57.25 -00 05 40.4 19.6 V 703 – Catalina Sky Survey MPS 420089
2012 03 27.26577 12 40 57.03 -00 05 40.0 19.0   704 – Lincoln Laboratory ETS, New Mexico MPS 420089
2012 03 27.26817 12 40 56.96 -00 05 37.8 18.4 V 703 – Catalina Sky Survey MPS 420089
2012 03 27.27615 12 40 56.34 -00 05 38.5 19.3   704 – Lincoln Laboratory ETS, New Mexico MPS 420089
2012 03 27.28668 12 40 55.70 -00 05 36.8 19.1   704 – Lincoln Laboratory ETS, New Mexico MPS 420089
2012 03 27.30775 12 40 54.21 -00 05 35.6 20.1   704 – Lincoln Laboratory ETS, New Mexico MPS 420089
2012 03 30.35746 12 37 37.81 +00 00 48.9 19.3 V G96 – Mt. Lemmon Survey MPS 420089
2012 03 30.36266 12 37 37.48 +00 00 49.6 19.2 V G96 – Mt. Lemmon Survey MPS 420089
2012 03 30.36795 12 37 37.12 +00 00 50.3 19.6 V G96 – Mt. Lemmon Survey MPS 420089
2012 04 11.25004 12 25 15.63 +00 19 13.5 20.0 V 703 – Catalina Sky Survey MPS 420755
2012 04 11.25561 12 25 15.20 +00 19 13.5 19.2 V 703 – Catalina Sky Survey MPS 420755
2012 04 11.26134 12 25 14.91 +00 19 14.4 18.4 V 703 – Catalina Sky Survey MPS 420755
2012 04 11.26705 12 25 14.52 +00 19 14.2 19.8 V 703 – Catalina Sky Survey MPS 420755
2012 04 21.23631 12 16 33.56 +00 22 03.3 20.4 V 703 – Catalina Sky Survey MPS 422716
2012 04 21.24417 12 16 33.16 +00 22 04.6 19.8 V 703 – Catalina Sky Survey MPS 422716
2012 04 21.25204 12 16 32.77 +00 22 02.7 20.3 V 703 – Catalina Sky Survey MPS 422716
